{"data":{"norad_id":65527,"intl_designator":"2025-200H","name":"STARLINK-35067","alt_names":[],"object_type":"PAYLOAD","status":"ACTIVE","operator":null,"country":"US","launch_date":"2025-09-06","launch_site_code":"AFWTR","launch_vehicle":null,"mission":null,"orbit_class":"UNKNOWN","rcs_meters":null,"size_class":null,"mass_kg":null,"dimensions":null,"purposes":["comms"],"wikipedia_slug":null,"has_3d_model":false,"image_url":null,"decayed_at":null,"tle_current":{"epoch":"2026-09-20T10:57:09.668160Z","epoch_age_seconds":115781,"freshness":"FRESH","line1":"1 65527U 25200H   26263.45636190  .00014680  00000+0  45578-3 0  9997","line2":"2 65527  97.2829 329.8248 0002692  94.4553 265.6997 15.33469448 58621","mean_motion":15.33469448,"eccentricity":0.0002692,"inclination_deg":97.2829,"raan_deg":329.8248,"arg_perigee_deg":94.4553,"mean_anomaly_deg":265.6997,"bstar":0.00045578,"rev_number":5862,"period_min":93.904707516546,"perigee_km":463.62813627556,"apogee_km":467.31273451878,"semimajor_km":6843.6074353972,"source":"CELESTRAK","updated_at":"2026-09-21T09:00:35.648910Z"}}}